930  
ASUS41 KOKX 192114  
RWROKX  
 
REGIONAL WEATHER ROUNDUP  
NATIONAL WEATHER SERVICE NEW YORK NY  
400 PM EST WED FEB 19 2020  
 
NOTE: "FAIR" INDICATES FEW OR NO CLOUDS BELOW 12,000 FEET WITH NO  
SIGNIFICANT WEATHER AND/OR S TO VISIBILITY
.  
 
NYZ071-072-176-178-NJZ106-104-192200-  
NEW YORK CITY METRO AREA  
 
CITY SKY/WX TMP DP RH WIND PRES REMARKS
 
CENTRAL PARK FAIR 45 8 22 MISG 30.26R  
BRONX LEHMAN C N/A 43 12 28 N10G22 N/A  
LAGUARDIA ARPT FAIR 45 13 27 NW18 30.24R  
QUEENS COLLEGE N/A N/A N/A N/A NW13 N/A  
KENNEDY INTL FAIR 47 16 29 NW17 30.24R  
BREEZY POINT N/A 46 N/A N/A NW15G22 N/A  
BROOKLYN COLL N/A 46 14 27 NW14 N/A  
STATEN ISLAND N/A 46 14 27 NW13 N/A  
NEWARK/LIBERTY PTSUNNY 47 10 22 NW15G25 30.24R  
TETERBORO FAIR 44 13 28 NW13G23 30.24R  

 
 
NYZ177-179-078>081-192200-  
LONG ISLAND NEW YORK  
 
CITY SKY/WX TMP DP RH WIND PRES REMARKS
 
JONES BEACH N/A 45 N/A N/A N22G28 N/A  
WANTAGH N/A 45 12 26 NW15G26 N/A  
HEMPSTEAD N/A 45 16 31 NW13 30.28  
MATINECOCK PT N/A 45 N/A N/A NW20G25 N/A  
FARMINGDALE FAIR 47 11 23 NW10G23 30.24R  
MACARTHUR/ISP FAIR 45 12 26 NW17G25 30.22R  
STONY BROOK N/A 43 21 42 NW8 N/A  
SHIRLEY FAIR 46 15 28 NW16 30.22R  
MT SINAI HARB N/A N/A N/A N/A NW6 N/A  
WESTHAMPTON FAIR 45 16 31 W17 30.22R  
EAST HAMPTON FAIR 44 13 28 NW12G24 30.19R  
SOUTHOLD N/A 43 25 49 NW13 N/A  
MONTAUK N/A 45 26 47 NW10 30.20R  

 
 
NYZ052-065-067-192200-  
HUDSON VALLEY  
 
CITY SKY/WX TMP DP RH WIND PRES REMARKS
 
WHITE PLAINS FAIR 41 9 26 NW21G30 30.22R  
LARCHMONT HARB N/A 43 N/A N/A NW14G21 N/A  
CROTON ON HUDS N/A 41 N/A N/A NW23G29 N/A  
SOMERS N/A 39 12 33 NW9G22 N/A WCI 33  
BREWSTER N/A 39 19 45 N12 N/A WCI 32  
NEWBURGH MOSUNNY 39 12 33 NW16G26 30.24R WCI 30  
MONTGOMERY FAIR 38 13 35 NW15G25 30.24R WCI 29  
OTISVILLE N/A 37 12 35 NW14 N/A WCI 29  
WARWICK N/A 39 16 38 NW13 N/A WCI 32  
SUFFERN N/A 39 14 35 NW12 N/A WCI 32  
POUGHKEEPSIE FAIR 41 14 33 NW15 30.25R  
ALBANY FAIR 35 10 35 W20G30 30.28R WCI 24  

 
 
NJZ001-105-106-008-010-013-015-019>022-104-192200-  
NEW JERSEY  
 
CITY SKY/WX TMP DP RH WIND PRES REMARKS
 
NEWARK/LIBERTY PTSUNNY 47 10 22 NW15G25 30.24R  
TETERBORO FAIR 44 13 28 NW13G23 30.24R  
CALDWELL FAIR 46 10 23 NW17G25 30.25R  
SOMERVILLE FAIR 46 11 24 NW16G25 30.24R  
LINDEN FAIR 47 13 25 NW12G22 30.25R  
PERTH AMBOY N/A 45 N/A N/A NW18G25 N/A  
SUSSEX FAIR 42 11 28 VRB7 30.24R  
ANDOVER N/A 42 11 28 VRB7 30.24R  
TRENTON FAIR 48 13 24 NW12 30.24S  
MILLVILLE FAIR 50 13 22 NW18G25 30.27S  
ATLANTIC CITY FAIR 53 17 24 NW15 30.25  
WRIGHTSTOWN FAIR 49 16 26 NW12G21 30.24S  
TOMS RIVER FAIR 49 17 28 NW14G25 30.25R  
BELMAR FAIR 49 17 28 NW16 30.24R  

 
 
PAZ047>061-062-071-192200-  
EASTERN PENNSYLVANIA  
 
CITY SKY/WX TMP DP RH WIND PRES REMARKS
 
PHILADELPHIA PTSUNNY 50 14 23 NW15G25 30.28R  
ALLENTOWN FAIR 47 10 22 NW16 30.25R  
SCRANTON FAIR 39 13 34 N14G23 30.26S WCI 31  

 
 
CTZ002-004>006-009-010-012-RIZ004-006-007-MAZ004-011-015-192200-  
SOUTHERN NEW ENGLAND  
 
IN CT  
 
CITY SKY/WX TMP DP RH WIND PRES REMARKS
 
BRADLEY INTL FAIR 39 9 29 NW23G30 30.22R WCI 28  
HARTFORD FAIR 40 12 32 NW14G25 30.24R WCI 32  
DANBURY FAIR 40 17 39 NW13G20 30.23R WCI 32  
WTRBURY/OXFORD FAIR 38 19 46 N17G25 30.20R WCI 28  
NORWALK HARBOR N/A 41 N/A N/A W21G30 N/A  
BRIDGEPORT FAIR 46 14 27 NW15 30.21R  
MERIDEN FAIR 41 16 36 NW14 30.23R  
NEW HAVEN FAIR 45 17 32 NW13G24 30.21R  
CHESTER FAIR 43 14 31 N15G23 30.19R  
GROTON FAIR 42 16 34 NW20G25 30.19R  
WILLIMANTIC FAIR 38 11 32 NW16G30 30.22R WCI 29  
 
IN RI  
 
CITY SKY/WX TMP DP RH WIND PRES REMARKS
 
PROVIDENCE FAIR 41 11 29 NW21G30 30.18R  
BLOCK ISLAND FAIR 42 19 39 NW14G24 30.19R  
WESTERLY FAIR 45 11 25 NW16G28 30.20R  
 
IN MA  
 
CITY SKY/WX TMP DP RH WIND PRES REMARKS
 
BOSTON FAIR 43 9 24 NW17G30 30.15R  
WORCESTER FAIR 34 9 35 W23G31 30.13R WCI 22  
WESTFIELD FAIR 37 11 34 W17G25 30.21R WCI 27  
PROVINCETOWN FAIR 41 22 46 NW18G25 30.15R  
NANTUCKET FAIR 45 18 34 W20G29 30.14R  

 
 
ANZ330-335-338-340-345-350-353-355-192200-  
COASTAL MARINE OBSERVATIONS  
 
 
STATION/POSITION TIME SKY/WX TEMP WIND PRES VSBY WAVE
 
AIR SEA DIR/SP/G HT/PER  
(UTC) (F) (DEG/KT/KT) (MB) (MI) (FT/S)  
NY HARB ENTRANCE 2050 45 300/ 14/ 17 1024.0 3/ 8  
20 S FIRE ISLAND 2050 45 44 1023.3 3/ 8  
GREAT SOUTH BAY NOT AVBL  
23 SSW MONTAUK P NOT AVBL  
15 E BARNEGAT LI 2100 45 N/A 3/ 8  
HUDSON CANYON 2050 44 47 1024.6 4/ 8  
KINGS POINT 2030 42 42 10/ 17/ 24 1024.5  
EXECUTION ROCKS 2045 44 32 300/ 16/ 21 N/A  
WESTERN LI SOUND 2045 43 300/ 16/ 23 N/A 1/ 2  
CENTRAL LI SOUND NOT AVBL  
ROBBINS REEF 2030 45 330/ 16/ 21 1023.7  

 
 
>>>>>>>>>>>>>>>>>>>>>>>>>>>> KEY <<<<<<<<<<<<<<<<<<<<<<<<<<<  
> <  
> SKY/WX - SKY CONDITION/PRESENT WEATHER <  
> TMP - TEMPERATURE IN FAHRENHEIT <  
> DP - DEW POINT IN FAHRENHEIT <  
> RH - RELATIVE HUMIDITY IN PERCENT <  
> WIND - DIRECTION (FROM) AND SPEED IN MPH <  
> PRES - MEAN SEA LEVEL PRESSURE (INCHES OF HG) <  
> WCI - WIND CHILL INDEX <  
> VSB - VISIBILITY IN MILES <  
> HX - HEAT INDEX <  
> TC - TEMPERATURE IN CELSIUS <  
> VRB - VARIABLE WIND DIRECTION <  
> <  
>>>>>>>>>>>>>>>>>>>>>>>>>>>> KEY <<<<<<<<<<<<<<<<<<<<<<<<<<<  
 
 
CLICK HERE TO GO TO PREVIOUS BULLETINS.

The Nexlab NY Page
The Nexlab NJ Page
The Nexlab CT Page Main Text Page